Regional Weather Roundup
Issued by NWS

Home | Current Version | Previous Version | Graphics & Text | Print | Product List | Glossary On
Versions: 1 2 3 4 5 6 7 8 9 10 11 12 13 14 15 16 17 18 19 20 21 22 23 24 25 26 27 28 29 30 31 32 33 34 35 36 37 38 39 40 41 42 43 44 45 46 47 48 49 50
791
ASUS44 KLIX 301007
RWRLA
LOUISIANA WEATHER ROUNDUP
NATIONAL WEATHER SERVICE NEW ORLEANS LA
500 AM CDT MON MAR 30 2015

NOTE: "FAIR" INDICATES FEW OR NO CLOUDS BELOW 12,000 FEET WITH NO
      SIGNIFICANT WEATHER AND/OR OBSTRUCTIONS TO VISIBILITY.
      SKY/WX - SKY CONDITION AND SIGNIFICANT WEATHER.
      TMP - AIR TEMPERATURE.    DP   - DEWPOINT TEMPERATURE.
      RH  - RELATIVE HUMIDITY.  PRES - PRESSURE.
      HX  - HEAT INDEX.         WCI  - WIND CHILL INDEX.

*  THESE STATIONS ARE NOT NWS OR FAA STATIONS AND ARE NOT UNDER
   NWS QUALITY CONTROL.

LAZ040-048-061>063-065-066-069-301100-
SOUTHEAST LOUISIANA

CITY           SKY/WX    TMP DP  RH WIND       PRES   REMARKS
N.O. AUDUBON     N/A     61  61  99 MISG        N/A
N.O. INTL ARPT PTCLDY    63  59  87 CALM      30.18S
N.O. LAKEFRONT MOCLDY    67  63  87 NW5       30.19S
SLIDELL        FOG       57  56  96 CALM      30.18S VSB 1/2
BATON ROUGE    MOCLDY    59  58  96 CALM      30.18R
BOOTHVILLE     CLEAR     67  63  87 CALM      30.19R
BELLE CHASSE   MOCLDY    56  55  97 CALM      30.17S FOG
BOGALUSA*      FOG       58  55  91 CALM      30.20S VSB 1/2
GALLIANO*      PTSUNNY   56  56  99 CALM      30.18S
NEW ROADS*     CLOUDY    59  58  98 CALM      30.18S FOG
GONZALES*      FAIR      58  58 100 CALM      30.18S
HAMMOND*       CLOUDY    57  55  94 CALM      30.20R
HOUMA*         FOG       59  59  99 CALM      30.17S VSB 1/2
PORT FOURCHON* SUNNY     70  66  88 SW6       30.21R

$$

LAZ041-044-053-054-301100-
SOUTHWEST LOUISIANA

CITY           SKY/WX    TMP DP  RH WIND       PRES   REMARKS
LAKE CHARLES   MOCLDY    60  58  92 CALM      30.16R
LAFAYETTE      PTCLDY    62  61  96 CALM      30.17R
PATTERSON      CLEAR     59  55  88 CALM      30.18F
SALT POINT       N/A     63  62  97 CALM      30.16S
NEW IBERIA     PTCLDY    60  58  92 CALM      30.18R FOG
CHENAULT AIRPK FOG       58  57  99 CALM      30.17R VSB 3/4

$$

LAZ027-028-301100-
CENTRAL LOUISIANA

CITY           SKY/WX    TMP DP  RH WIND       PRES   REMARKS
FORT POLK      CLEAR     58  57  97 NE1       30.16S
ALEXANDRIA INT CLEAR     57  56  96 CALM      30.15F FOG
ALEXANDRIA     PTCLDY    55  54  96 CALM      30.16F

$$

LAZ001-002-301100-
NORTHWEST LOUISIANA

CITY           SKY/WX    TMP DP  RH WIND       PRES   REMARKS
SHREVEPORT     PTCLDY    64  60  87 CALM      30.14R
BARKSDALE AFB  PTCLDY    64  60  86 SW2       30.14R
DTN SHREVEPORT PTCLDY    64  58  80 CALM      30.15R

$$

LAZ014-016-301100-
NORTHEAST LOUISIANA

CITY           SKY/WX    TMP DP  RH WIND       PRES   REMARKS
MONROE         CLOUDY    66  61  84 SW12      30.16R
TALLULAH       PTCLDY    65  59  81 SW8G17    30.14S

$$




USA.gov is the U.S. government's official web portal to all federal, state and local government web resources and services.